Regional Weather Roundup
Issued by NWS

Home | Current Version | Previous Version | Graphics & Text | Print | Product List | Glossary On
Versions: 1 2 3 4 5 6 7 8 9 10 11 12 13 14 15 16 17 18 19 20 21 22 23 24 25 26 27 28 29 30 31 32 33 34 35 36 37 38 39 40 41 42 43 44 45 46 47 48 49 50
746
ASUS43 KMKX 292200
RWRWI

WISCONSIN REGIONAL WEATHER ROUNDUP
NATIONAL WEATHER SERVICE MILWAUKEE/SULLIVAN WI
500 PM CDT MON MAY 29 2017

NOTE: "FAIR" INDICATES FEW OR NO CLOUDS BELOW 12,000 FEET WITH NO
SIGNIFICANT WEATHER AND/OR OBSTRUCTIONS TO VISIBILITY.

WIZ001-002-006>008-014>016-023>028-292300-
NORTHWEST WISCONSIN

CITY           SKY/WX    TMP DP  RH WIND       PRES   REMARKS
SUPERIOR ARPT  NOT AVBL
ASHLAND        CLOUDY    63  48  58 NW23G29   29.71R
HAYWARD        LGT RAIN  60  49  66 W9G17     29.74R
SIREN          CLOUDY    59  51  75 CALM      29.77F
CUMBERLAND     PTSUNNY   59  46  63 W14       29.78S
RICE LAKE      PTSUNNY   59  49  69 W10G17    29.79S
CHETEK         PTSUNNY   56  51  80 W9G16     29.77F
LADYSMITH      RAIN      55  50  83 W10G26    29.78R
EAU CLAIRE     PTSUNNY   62  48  60 W16G24    29.78S
MENOMONIE      PTSUNNY   64  50  60 SW12G20   29.79S
NEW RICHMOND   PTSUNNY   65  46  51 W16G22    29.79F
OSCEOLA        PTSUNNY   65  48  55 W13G22    29.82S
$$

WIZ003>005-009-010-017-018-292300-
NORTH CENTRAL WISCONSIN

CITY           SKY/WX    TMP DP  RH WIND       PRES   REMARKS
MANITOWISH WTR LGT RAIN  54  54 100 NW12G17   29.71R
ARBOR VITAE    CLOUDY    59  52  77 W9        29.70S
WOODRUFF       CLOUDY    59  52  77 W9        29.70S
RHINELANDER    HVY RAIN  54  50  86 W10G20    29.73R FOG
EAGLE RIVER    CLOUDY    61  44  53 W18G25    29.69S
LAND O LAKES   LGT RAIN  55  52  90 W5        29.71R
PHILLIPS       CLOUDY    54  52  93 W3        29.73R
TOMAHAWK       PTSUNNY   59  46  61 W10G16    29.73R
MEDFORD        CLOUDY    57  47  70 W17       29.76R
MERRILL        LGT RAIN  55  51  88 W8        29.75R
$$

WIZ029-030-035-036-043>047-292300-
CENTRAL WISCONSIN

CITY           SKY/WX    TMP DP  RH WIND       PRES   REMARKS
WAUSAU         PTSUNNY   57  44  62 NW18      29.75R
MOSINEE        NOT AVBL
MARSHFIELD     LGT RAIN  58  50  75 W9        29.77F
STEVENS POINT  PTSUNNY   58  46  64 SW13G24   29.78S
WAUPACA        CLOUDY    61  50  66 W9G16     29.78S
WAUTOMA        LGT RAIN  56  51  84 W14G23    29.82
WISC RAPIDS    CLOUDY    60  51  72 W13G20    29.80S
CAMP DOUGLAS   NOT AVBL
$$

WIZ011>013-019>022-031-037>040-048>050-292300-
NORTHEAST WISCONSIN

CITY           SKY/WX    TMP DP  RH WIND       PRES   REMARKS
ANTIGO         CLOUDY    56  51  81 W13       29.74R
SHAWANO        PTSUNNY   66  49  54 SW12G20   29.73S
OCONTO         CLOUDY    59  50  72 W7        29.73R
STURGEON BAY   PTSUNNY   61  49  64 W16       29.74R
GREEN BAY      SUNNY     67  51  56 SW13      29.74F
MANITOWOC      NOT AVBL
APPLETON       PTSUNNY   64  43  45 W17G24    29.75F
CLINTONVILLE   CLOUDY    61  48  63 W13G23    29.75R
OSHKOSH        PTSUNNY   66  46  48 W8        29.76S
$$

WIZ032>034-041-042-053>061-292300-
SOUTHWEST WISCONSIN

CITY           SKY/WX    TMP DP  RH WIND       PRES   REMARKS
LA CROSSE      CLOUDY    61  53  75 W7        29.82R
SPARTA         CLOUDY    64  50  60 W10G17    29.81F
VIROQUA        CLOUDY    67  46  45 N15       29.83S
BOSCOBEL       MOSUNNY   71  44  37 W17G25    29.82F
PRAIRIE DU CHI PTSUNNY   68  43  40 W14       29.84S
PLATTEVILLE    MOSUNNY   69  47  44 NW15G25   29.85S
$$

WIZ056-057-062-063-064-067-068-292300-
SOUTH CENTRAL WISCONSIN

CITY           SKY/WX    TMP DP  RH WIND       PRES   REMARKS
REEDSBURG      CLOUDY    61  51  70 W8G16     29.83R
BARABOO/DELLS  RAIN      62  45  54 W18G29    29.82R
LONE ROCK      NOT AVBL
MINERAL POINT  MOSUNNY   70  45  40 W17       29.84S
MADISON        PTSUNNY   66  45  46 MISG      29.81S
MIDDLETON      CLOUDY    67  46  48 W10       29.83S
WATERTOWN      MOSUNNY   67  46  45 W13G20    29.81S
MONROE         SUNNY     70  41  35 W26G32    29.84S
JANESVILLE     PTSUNNY   72  43  35 W20G26    29.82F
$$

WIZ051-052-058>065-066-070>072-292300-
SOUTHEAST WISCONSIN

CITY           SKY/WX    TMP DP  RH WIND       PRES   REMARKS
MILWAUKEE      MOSUNNY   71  45  39 W16G25    29.80S
WAUKESHA       MOSUNNY   66  45  45 W17G28    29.82S
MILWAUKEE/TIMM PTSUNNY   70  41  35 W18G25    29.81S
RACINE         MOSUNNY   71  43  36 W16G28    29.82R
KENOSHA        MOSUNNY   71  46  40 W17G32    29.82R
FOND DU LAC    MOSUNNY   69  43  38 W15G22    29.78R
SHEBOYGAN      CLOUDY    67  49  52 W21G28    29.77S
WEST BEND      PTSUNNY   68  45  42 W17G24    29.79S
JUNEAU         MOSUNNY   66  44  45 SW20      29.82S
$$

LSZ147-162-292300-
LAKE SUPERIOR

STATION/POSITION TIME  TEMP    WIND        PRES    WAVE
                       AIR SEA DIR/SP/G            HT/PER
                 (UTC) (F)     (DEG/KT/KT) (MB)    (FT/S)
W MID LAKE BUOY  2050   44 38  250/ 17/ 19 1003.6R   3/ 4
DEVILS ISLAND    2100   47     240/ 18/ 20 1005.3R
PORT WING        2040   54     260/ 15/ 20 1006.4S
SAXON HARBOR     2140   58     310/ 14/ 21 1005.4S
$$

LMZ867-665-643>646-292300-
LAKE MICHIGAN

STATION/POSITION TIME  TEMP    WIND        PRES    WAVE
                       AIR SEA DIR/SP/G            HT/PER
                 (UTC) (F)     (DEG/KT/KT) (MB)    (FT/S)
CHAMBERS ISLAND  2140   60     200/  4/ 10 1005.4R
N MID LAKE BUOY  2050   49 41  190/ 12/ 16 1006.3F   2/ 4
NORTHPORT PIER   2140   65     250/  7/ 18 1005.4R
KEWAUNEE LAKESHO 2130   65     270/ 15/ 22 1007.0R
SHEBOYGAN LAKESH 2100   67     260/ 15/ 21 1007.6F
PORT WASHINGTON  2130   70     270/ 12/ 21 1009.1F
ATWATER BUOY     2009   64     250/ 14/ 19 1009.1R
MILWAUKEE LAKESH 2130   69     280/ 16/ 22   N/A
S MID LAKE BUOY  2050   56 48  290/  8/ 10 1009.8F   2/ 4
KENOSHA   LAKESH 2100   71     260/ 18/ 34 1009.1
$$

TC  - TEMPERATURE IN CELSIUS
VSB - VISIBILITY IN STATUTE MILES
WCI - WIND CHILL INDEX
HX  - HEAT INDEX





USA.gov is the U.S. government's official web portal to all federal, state and local government web resources and services.